User: anonymous   Login
Location: Unspecified
(0.0000°N, 0.0000°E)
Time: 23:29:26
(UTC+00:00)
Language:

Explorer 7 - Orbit

View from above orbital plane
View from above orbital plane
View from above satellite
View from above satellite

Ground track
Ground track

The orbit data is extracted from the following two-line orbital elements,

1 00022U 59009A   17293.19456630  .00000315  00000-0  47294-4 0  9992
2 00022  50.2850 336.5554 0141601 150.1378 210.7743 14.94324997 80043
Epoch (UTC): 20 October 2017 04:40:10
Eccentricity: 0.0141601
inclination: 50.2850°
perigee height: 486 km
apogee height: 683 km
right ascension of ascending node: 336.5554°
argument of perigee: 150.1378°
revolutions per day: 14.94324997
mean anomaly at epoch: 210.7743°
orbit number at epoch: 8004

The dashed part of the orbit path shows where the satellite is in the earth's shadow,  

DLR